Location: Hopville
(44.8032°N, 123.1329°W)
Time: 03:41:27
(UTC+00:00)

CZ-4B R/B - Pass Details

Date: 24 January 2021
Orbit: 809 x 882 km, 99.1° (Epoch: 26 February)

Event Time Altitude Azimuth Distance (km) Brightness Sun altitude
Rises 14:24:28 0° 18° (NNE) 3,490 6.5 -13.3°
Reaches altitude 10° 14:26:57 10° 23° (NNE) 2,543 5.8 -12.9°
Maximum altitude 14:32:30 56° 101° (E) 1,032 4.1 -12.0°
Drops below altitude 10° 14:37:57 10° 179° (S) 2,492 5.9 -11.0°
Sets 14:40:21 0° 184° (S) 3,414 6.5 -10.6°
